• en Belgique
  • Liste des pays
  • À 7 jours
  • Température de l'eau
  • Carte satellitaire
  • Carte météo
  • Widgets météo
  • user-avatar
    Se connecter

    Météo par heure à Сhiang Mai

    Ce jour, 15 Novembre, Jeudi

    Heure Température Précipitation Vent Pression Humidité
    00:00 +23°C° 0.1 mm 0 m/s 732 mmHg 84%
    01:00 +23°C° 0 mm 0 m/s 732 mmHg 85%
    02:00 +22°C° 0.1 mm 0 m/s 732 mmHg 86%
    03:00 +22°C° 0.1 mm 0 m/s 732 mmHg 87%
    04:00 +22°C° 0.1 mm 0 m/s 732 mmHg 88%
    05:00 +22°C° 0 mm 0 m/s 732 mmHg 88%
    06:00 +22°C° 0 mm 0 m/s 732 mmHg 88%
    07:00 +23°C° 0 mm 0 m/s 732 mmHg 87%
    08:00 +25°C° 0 mm 0 m/s 733 mmHg 78%
    09:00 +28°C° 0 mm 0 m/s 733 mmHg 69%
    10:00 +31°C° 0 mm 0 m/s 733 mmHg 60%
    11:00 +32°C° 0.2 mm 0 m/s 733 mmHg 57%
    12:00 +32°C° 0.2 mm 0 m/s 732 mmHg 55%
    13:00 +34°C° 0 mm 1 m/s 732 mmHg 59%
    14:00 +33°C° 0.4 mm 1 m/s 731 mmHg 60%
    15:00 +33°C° 0.4 mm 1 m/s 731 mmHg 61%
    16:00 +33°C° 0.4 mm 1 m/s 730 mmHg 63%
    17:00 +31°C° 0.1 mm 1 m/s 731 mmHg 69%
    18:00 +27°C° 0.1 mm 0 m/s 731 mmHg 76%
    19:00 +25°C° 0 mm 0 m/s 731 mmHg 82%
    20:00 +24°C° 0 mm 0 m/s 732 mmHg 84%
    21:00 +24°C° 0 mm 0 m/s 732 mmHg 85%
    22:00 +23°C° 0 mm 0 m/s 732 mmHg 87%
    23:00 +23°C° 0 mm 0 m/s 732 mmHg 88%

    Demain, 16 Novembre, Vendredi

    Heure Température Précipitation Vent Pression Humidité
    00:00 +23°C° 0 mm 0 m/s 732 mmHg 89%
    01:00 +23°C° 0 mm 0 m/s 733 mmHg 90%
    02:00 +22°C° 0.1 mm 0 m/s 732 mmHg 91%
    03:00 +22°C° 0.1 mm 0 m/s 732 mmHg 92%
    04:00 +22°C° 0.1 mm 0 m/s 732 mmHg 92%
    05:00 +22°C° 0.1 mm 0 m/s 732 mmHg 92%
    06:00 +22°C° 0.1 mm 0 m/s 733 mmHg 92%
    07:00 +22°C° 0.1 mm 0 m/s 733 mmHg 92%
    08:00 +25°C° 0 mm 0 m/s 733 mmHg 82%
    09:00 +28°C° 0 mm 0 m/s 734 mmHg 72%
    10:00 +31°C° 0 mm 0 m/s 734 mmHg 62%
    11:00 +31°C° 0 mm 0 m/s 733 mmHg 58%
    12:00 +34°C° 0 mm 1 m/s 732 mmHg 55%
    13:00 +35°C° 0 mm 1 m/s 732 mmHg 52%
    14:00 +34°C° 0.2 mm 1 m/s 731 mmHg 54%
    15:00 +34°C° 0.2 mm 1 m/s 731 mmHg 56%
    16:00 +33°C° 0.2 mm 1 m/s 730 mmHg 59%
    17:00 +31°C° 0.1 mm 1 m/s 730 mmHg 66%
    18:00 +27°C° 0.1 mm 0 m/s 730 mmHg 73%
    19:00 +25°C° 0.1 mm 0 m/s 731 mmHg 80%
    20:00 +25°C° 0 mm 0 m/s 731 mmHg 82%
    21:00 +24°C° 0 mm 0 m/s 732 mmHg 84%
    22:00 +24°C° 0 mm 0 m/s 732 mmHg 86%
    23:00 +24°C° 0.1 mm 0 m/s 732 mmHg 88%

    Après-demain, 17 Novembre, Samedi

    Heure Température Précipitation Vent Pression Humidité
    00:00 +23°C° 0.1 mm 0 m/s 732 mmHg 89%
    01:00 +23°C° 0.1 mm 0 m/s 732 mmHg 91%
    02:00 +23°C° 0.2 mm 0 m/s 732 mmHg 92%
    03:00 +22°C° 0.2 mm 0 m/s 732 mmHg 93%
    04:00 +22°C° 0.2 mm 0 m/s 732 mmHg 94%
    05:00 +22°C° 0.1 mm 0 m/s 732 mmHg 93%
    06:00 +22°C° 0.1 mm 0 m/s 732 mmHg 93%
    07:00 +22°C° 0.1 mm 0 m/s 732 mmHg 93%
    08:00 +25°C° 0.1 mm 0 m/s 733 mmHg 84%
    09:00 +27°C° 0.1 mm 0 m/s 733 mmHg 74%
    10:00 +30°C° 0.1 mm 0 m/s 734 mmHg 65%
    11:00 +33°C° 0.2 mm 1 m/s 733 mmHg 62%
    12:00 +34°C° 0.2 mm 1 m/s 732 mmHg 59%
    13:00 +34°C° 0.2 mm 1 m/s 732 mmHg 56%
    14:00 +34°C° 0.4 mm 1 m/s 731 mmHg 59%
    15:00 +33°C° 0.4 mm 1 m/s 730 mmHg 61%
    16:00 +32°C° 0.4 mm 1 m/s 729 mmHg 64%
    17:00 +31°C° 0.1 mm 1 m/s 730 mmHg 70%
    18:00 +27°C° 0.1 mm 0 m/s 730 mmHg 77%
    19:00 +25°C° 0.1 mm 0 m/s 731 mmHg 84%
    20:00 +24°C° 0 mm 0 m/s 731 mmHg 85%
    21:00 +24°C° 0 mm 0 m/s 732 mmHg 87%
    22:00 +24°C° 0 mm 0 m/s 732 mmHg 88%
    23:00 +23°C° 0.1 mm 0 m/s 732 mmHg 89%

    18 Novembre, Dimanche

    Heure Température Précipitation Vent Pression Humidité
    00:00 +23°C° 0.1 mm 0 m/s 732 mmHg 90%
    01:00 +23°C° 0.1 mm 0 m/s 732 mmHg 91%
    02:00 +23°C° 0 mm 0 m/s 732 mmHg 92%
    03:00 +22°C° 0 mm 0 m/s 732 mmHg 92%
    04:00 +22°C° 0 mm 0 m/s 732 mmHg 93%
    05:00 +22°C° 0.1 mm 0 m/s 732 mmHg 93%
    06:00 +22°C° 0.1 mm 0 m/s 732 mmHg 93%
    07:00 +22°C° 0.1 mm 0 m/s 733 mmHg 92%
    08:00 +25°C° 0 mm 0 m/s 733 mmHg 82%
    09:00 +27°C° 0 mm 0 m/s 734 mmHg 72%
    10:00 +30°C° 0 mm 0 m/s 735 mmHg 62%
    11:00 +31°C° 0.1 mm 0 m/s 734 mmHg 58%
    12:00 +33°C° 0.1 mm 0 m/s 733 mmHg 53%
    13:00 +34°C° 0.1 mm 0 m/s 732 mmHg 49%
    14:00 +33°C° 0.2 mm 0 m/s 732 mmHg 51%
    15:00 +32°C° 0.2 mm 0 m/s 731 mmHg 52%
    16:00 +31°C° 0.2 mm 0 m/s 730 mmHg 54%
    17:00 +29°C° 0.2 mm 0 m/s 731 mmHg 62%
    18:00 +27°C° 0.2 mm 0 m/s 731 mmHg 70%
    19:00 +27°C° 0.2 mm 1 m/s 732 mmHg 78%
    20:00 +24°C° 0.1 mm 0 m/s 732 mmHg 81%
    21:00 +24°C° 0.1 mm 0 m/s 733 mmHg 84%
    22:00 +23°C° 0.1 mm 0 m/s 734 mmHg 87%
    23:00 +23°C° 0.2 mm 0 m/s 733 mmHg 88%

    19 Novembre, Lundi

    Heure Température Précipitation Vent Pression Humidité
    00:00 +23°C° 0.2 mm 0 m/s 733 mmHg 89%
    01:00 +22°C° 0.2 mm 0 m/s 733 mmHg 90%
    02:00 +22°C° 0 mm 0 m/s 733 mmHg 91%
    03:00 +22°C° 0 mm 0 m/s 732 mmHg 92%
    04:00 +22°C° 0 mm 0 m/s 732 mmHg 92%
    05:00 +22°C° 0 mm 0 m/s 732 mmHg 92%
    06:00 +22°C° 0 mm 0 m/s 733 mmHg 92%
    07:00 +22°C° 0 mm 0 m/s 733 mmHg 92%
    08:00 +25°C° 0 mm 0 m/s 734 mmHg 81%
    09:00 +27°C° 0 mm 0 m/s 734 mmHg 70%
    10:00 +30°C° 0 mm 0 m/s 735 mmHg 60%
    11:00 +31°C° 0 mm 0 m/s 734 mmHg 56%
    12:00 +33°C° 0 mm 0 m/s 733 mmHg 51%
    13:00 +34°C° 0 mm 0 m/s 732 mmHg 47%
    14:00 +33°C° 0.1 mm 0 m/s 732 mmHg 50%
    15:00 +32°C° 0.1 mm 0 m/s 731 mmHg 53%
    16:00 +33°C° 0.1 mm 1 m/s 731 mmHg 55%
    17:00 +31°C° 0.2 mm 1 m/s 731 mmHg 63%
    18:00 +27°C° 0.2 mm 0 m/s 732 mmHg 70%
    19:00 +25°C° 0.2 mm 0 m/s 732 mmHg 78%
    20:00 +25°C° 0 mm 0 m/s 733 mmHg 80%
    21:00 +24°C° 0 mm 0 m/s 733 mmHg 82%
    22:00 +24°C° 0 mm 0 m/s 734 mmHg 85%
    23:00 +23°C° 0 mm 0 m/s 733 mmHg 86%

    20 Novembre, Mardi

    Heure Température Précipitation Vent Pression Humidité
    00:00 +23°C° 0 mm 0 m/s 733 mmHg 88%
    01:00 +23°C° 0 mm 0 m/s 733 mmHg 89%
    02:00 +22°C° 0 mm 0 m/s 732 mmHg 90%
    03:00 +22°C° 0 mm 0 m/s 732 mmHg 91%
    04:00 +22°C° 0 mm 0 m/s 732 mmHg 92%
    05:00 +22°C° 0 mm 0 m/s 732 mmHg 92%
    06:00 +22°C° 0 mm 0 m/s 733 mmHg 92%
    07:00 +22°C° 0 mm 0 m/s 733 mmHg 92%
    08:00 +25°C° 0 mm 0 m/s 734 mmHg 81%
    09:00 +27°C° 0 mm 0 m/s 734 mmHg 71%
    10:00 +30°C° 0 mm 0 m/s 735 mmHg 60%
    11:00 +31°C° 0.2 mm 0 m/s 734 mmHg 57%
    12:00 +32°C° 0.2 mm 0 m/s 733 mmHg 55%
    13:00 +33°C° 0.2 mm 0 m/s 732 mmHg 52%
    14:00 +33°C° 0.3 mm 0 m/s 732 mmHg 54%
    15:00 +32°C° 0.3 mm 0 m/s 731 mmHg 56%
    16:00 +31°C° 0.3 mm 0 m/s 730 mmHg 59%
    17:00 +29°C° 0.1 mm 0 m/s 731 mmHg 65%
    18:00 +27°C° 0.1 mm 0 m/s 731 mmHg 71%
    19:00 +25°C° 0.1 mm 0 m/s 732 mmHg 77%
    20:00 +24°C° 0 mm 0 m/s 732 mmHg 80%
    21:00 +24°C° 0 mm 0 m/s 733 mmHg 82%
    22:00 +24°C° 0 mm 0 m/s 733 mmHg 84%
    23:00 +23°C° 0 mm 0 m/s 733 mmHg 85%
    Voir plus